This demonstration page uses our WeatherBlox Daily Observations layout. Learn more.

Left ArrowRight Arrow

Hourly Observations for November 18, 2020

Temp ( °F °C ) Dew Point ( °F °C ) Humidity (%) Winds ( mph kmh ) Pressure ( in mb ) Visibility ( mi km ) Precip ( " mm )
12:52 am 00:52 Clear 41 5 31 -0.6 67 67 SSE 12 19 30.19 1022 10 16 0.00 0.00
1:52 am 01:52 Clear 41 5 30 -1.1 65 65 S 10 17 30.16 1021 10 16 0.00 0.00
2:52 am 02:52 Clear 41 5 30 -1.1 65 65 S 13 20 30.13 1020 10 16 0.00 0.00
3:52 am 03:52 Clear 42 5.6 30 -1.1 62 62 S 13 20 30.12 1020 10 16 0.00 0.00
4:52 am 04:52 Mostly Clear 40 4.4 30 -1.1 68 68 SSE 15 24 30.08 1019 10 16 0.00 0.00
5:52 am 05:52 Mostly Clear 42 5.6 30 -1.1 62 62 SSE 14 22 30.07 1018 10 16 0.00 0.00
6:52 am 06:52 Mostly Clear 45 7.2 31 -0.6 58 58 S 14 22 30.05 1018 10 16 0.00 0.00
7:52 am 07:52 Partly Cloudy 46 7.8 32 0 58 58 S 16 26 30.03 1017 10 16 0.00 0.00
8:52 am 08:52 Partly Cloudy 50 10 34 1.1 54 54 S 22 35 30.01 1016 10 16 0.00 0.00
9:52 am 09:52 Partly Cloudy 54 12.2 34 1.1 47 47 S 20 31 30.00 1016 10 16 0.00 0.00
10:52 am 10:52 Mostly Sunny 60 15.6 35 1.7 39 39 S 18 30 29.96 1015 10 16 0.00 0.00
11:52 am 11:52 Partly Cloudy 65 18.3 35 1.7 33 33 S 20 31 29.91 1013 10 16 0.00 0.00
12:52 pm 12:52 Mostly Cloudy N/A N/A N/A SSW 23 37 N/A 10 16 0.00 0.00
1:52 pm 13:52 Mostly Cloudy 69 20.6 37 2.8 31 31 SSW 21 33 29.86 1011 10 16 0.00 0.00
2:52 pm 14:52 Mostly Cloudy 70 21.1 37 2.8 30 30 SSW 20 31 29.85 1011 10 16 0.00 0.00
3:52 pm 15:52 Mostly Cloudy 67 19.4 37 2.8 33 33 S 17 28 29.84 1010 10 16 0.00 0.00
4:52 pm 16:52 Mostly Cloudy 66 18.9 38 3.3 36 36 S 15 24 29.83 1010 10 16 0.00 0.00
5:52 pm 17:52 Cloudy 65 18.3 39 3.9 39 39 S 15 24 29.83 1010 10 16 0.00 0.00
6:52 pm 18:52 Cloudy 64 17.8 38 3.3 38 38 S 14 22 29.84 1010 10 16 0.00 0.00
7:52 pm 19:52 Cloudy 64 17.8 38 3.3 38 38 S 18 30 29.82 1010 10 16 0.00 0.00
8:52 pm 20:52 Cloudy 64 17.8 39 3.9 40 40 S 17 28 29.82 1010 10 16 0.00 0.00
9:52 pm 21:52 Cloudy 63 17.2 40 4.4 43 43 S 14 22 29.83 1010 10 16 0.00 0.00
10:52 pm 22:52 Cloudy 63 17.2 39 3.9 41 41 S 16 26 29.81 1009 10 16 0.00 0.00
11:52 pm 23:52 Mostly Cloudy 61 16.1 38 3.3 43 43 S 13 20 29.79 1009 10 16 0.00 0.00

Powered by AerisWeather